Tracking 22882 objects as of 18-Apr-2021
HD Live streaming from Space Station
objects crossing your sky now

COSMOS 2303

Track COSMOS 2303 now!
10-day predictions
COSMOS 2303 is classified as:


NORAD ID: 23445
Int'l Code: 1994-086E
Perigee: 1,418.8 km
Apogee: 1,437.3 km
Inclination: 82.6 °
Period: 114.2 minutes
Semi major axis: 7799 km
RCS: 1.1077 m2 (large)
Launch date: December 26, 1994
Source: Commonwealth of Independent States (former USSR) (CIS)
Launch site: PLESETSK MISSILE AND SPACE COMPLEX (PKMTR)
aabbcc
Your satellite tracking list
Your tracking list is empty




NASA's NSSDC Master Catalog

Two Line Element Set (TLE):
1 23445U 94086E   21108.49841229  .00000014  00000-0  17203-4 0  9998
2 23445  82.5700 105.8579 0011847 141.2946  17.6317 12.60498004210401
Source of the keplerian elements: AFSPC